Powrót do katalogu

STARLINK-36512

AktywnyŁącznośćVLEO
NORAD 67504·PAYLOAD·🇺🇸 United States

Wystrzelony Jan 18, 2026 z Cape Canaveral Space Force Station

Loading…

Następne Przeloty (najbliższe 24 godziny)

TLE

ŚwieżeSource: CelesTrak SupGP

Epoka: Sep 15, 2026, 02:52 UTC

1 67504C 26012M   26258.11993056  .00042943  00000+0  15550-2 0  2587
2 67504  43.0030 324.3414 0001543 271.4192 162.9758 15.27564441    12

Śledź STARLINK-36512 w czasie rzeczywistym z AllMySat

Download on the App Store